Regional Weather Roundup
Issued by NWS Glasgow, MT

Home | Current Version | Previous Version | Text Only | Print | Product List | Glossary On
Versions: 1 2 3 4 5 6 7 8 9 10 11 12 13 14 15 16 17 18 19 20 21 22 23 24 25 26 27 28 29 30 31 32 33 34 35 36 37 38 39 40 41 42 43 44 45 46 47 48 49 50
000
ASUS45 KGGW 221415
RWRGGW
HOURLY REGIONAL WEATHER ROUNDUP FOR NORTHEAST MONTANA
NATIONAL WEATHER SERVICE GLASGOW MONTANA
800 AM MDT FRI SEP 22 2017

NOTE: "FAIR" INDICATES FEW OR NO CLOUDS BELOW 12,000 FEET WITH NO
SIGNIFICANT WEATHER AND/OR OBSTRUCTIONS TO VISISBILITY.

NORTHEAST MONTANA


CITY           SKY/WX    TMP DP  RH WIND       PRES   REMARKS
GLASGOW        CLOUDY    42  37  82 NW10      30.03R
WOLF POINT     CLOUDY    47  38  71 CALM      30.02R
JORDAN           N/A     42  37  82 NW13      30.02S
WINNETT          N/A     39  36  89 NE8         N/A
SIDNEY         CLOUDY    47  38  71 N7        29.99R
GLENDIVE       CLOUDY    46  35  65 N13       29.98R
SCOBEY           N/A     42  31  65 NW8       29.99R

FORT PECK REPORTS


CITY           SKY/WX    TMP DP  RH WIND       PRES   REMARKS
FORT PECK        N/A     43  36  76 W9          N/A
THE PINES        N/A     42  34  73 NW6         N/A

SOUTHEAST MONTANA


CITY           SKY/WX    TMP DP  RH WIND       PRES   REMARKS
BILLINGS       CLOUDY    39  38  96 NE13      29.96S
MILES CITY     CLOUDY    47  34  60 N10       29.99R
BAKER          CLOUDY    48  37  65 N14       29.92R
LIVINGSTON     LGT SNOW  33  31  92 E20       29.93R FOG

CENTRAL MONTANA


CITY           SKY/WX    TMP DP  RH WIND       PRES   REMARKS
HAVRE          CLOUDY    38  34  85 NW6       30.08S
LEWISTOWN      CLOUDY    34  34 100 N3        30.02S
GREAT FALLS    MIX PCPN  34  32  92 NE9       30.06S
CUT BANK       CLOUDY    34  32  92 CALM      30.10R
HELENA         FLURRIES  37  31  78 N12G22    30.00R
BUTTE          LGT SNOW  33  29  85 NW7       29.90R FOG
BOZEMAN        CLOUDY    38  35  89 W10       29.89S

WESTERN MONTANA


CITY           SKY/WX    TMP DP  RH WIND       PRES   REMARKS
MISSOULA       LGT RAIN  41  39  93 NW3       29.98S
KALISPELL      NOT AVBL

NORTH DAKOTA


CITY           SKY/WX    TMP DP  RH WIND       PRES   REMARKS
WILLISTON      CLOUDY    46  39  76 N12       29.98R
DICKINSON      CLOUDY    49  38  65 N17       29.85R
MINOT          PTSUNNY   48  40  73 N13       29.90F
BISMARCK       CLOUDY    55  43  63 NE16G25   29.80R

SOUTHERN SASKATCHEWAN


CITY           SKY/WX    TMP DP  RH WIND       PRES   REMARKS
REGINA         CLOUDY    39  37  93 N6        30.02R
MOOSE JAW      PTSUNNY   39  39 100 NW8       30.05R
ESTEVAN        LGT RAIN  43  41  93 N8        29.98R
SWIFT CURRENT  CLOUDY    37  36  93 NW9       30.04S




USA.gov is the U.S. government's official web portal to all federal, state and local government web resources and services.